TimePDT,TemperatureF,Dew PointF,Humidity,Sea Level PressureIn,VisibilityMPH,Wind Direction,Wind SpeedMPH,Gust SpeedMPH,PrecipitationIn,Events,Conditions,WindDirDegrees,DateUTC
12:53 AM,60.1,44.1,55,30.15,10.0,Calm,Calm,-,N/A,,Clear,0,2012-09-30 07:53:00
1:53 AM,57.9,45.0,62,30.16,10.0,Calm,Calm,-,N/A,,Clear,0,2012-09-30 08:53:00
2:53 AM,57.9,45.0,62,30.17,10.0,Calm,Calm,-,N/A,,Clear,0,2012-09-30 09:53:00
3:53 AM,55.9,45.0,67,30.17,10.0,Calm,Calm,-,N/A,,Clear,0,2012-09-30 10:53:00
4:53 AM,54.0,44.1,69,30.18,10.0,Calm,Calm,-,N/A,,Clear,0,2012-09-30 11:53:00
5:53 AM,52.0,43.0,71,30.19,10.0,Calm,Calm,-,N/A,,Clear,0,2012-09-30 12:53:00
6:53 AM,52.0,44.1,74,30.22,10.0,South,3.5,-,N/A,,Clear,170,2012-09-30 13:53:00
7:53 AM,53.1,45.0,74,30.24,10.0,South,3.5,-,N/A,,Clear,170,2012-09-30 14:53:00
8:53 AM,57.9,45.0,62,30.25,10.0,Calm,Calm,-,N/A,,Clear,0,2012-09-30 15:53:00
9:53 AM,61.0,45.0,56,30.25,10.0,Calm,Calm,-,N/A,,Clear,0,2012-09-30 16:53:00
10:53 AM,68.0,46.0,45,30.23,10.0,Calm,Calm,-,N/A,,Clear,0,2012-09-30 17:53:00
11:53 AM,71.1,46.9,42,30.21,10.0,Calm,Calm,-,N/A,,Clear,0,2012-09-30 18:53:00
12:53 PM,77.0,48.9,37,30.18,10.0,Calm,Calm,-,N/A,,Clear,0,2012-09-30 19:53:00
1:53 PM,81.0,46.9,30,30.14,10.0,Variable,3.5,-,N/A,,Clear,0,2012-09-30 20:53:00
2:53 PM,84.0,46.0,26,30.12,10.0,Calm,Calm,-,N/A,,Clear,0,2012-09-30 21:53:00
3:53 PM,88.0,41.0,19,30.09,10.0,Calm,Calm,-,N/A,,Clear,0,2012-09-30 22:53:00
4:53 PM,87.8,41.0,19,30.10,10.0,Calm,Calm,-,N/A,,Clear,0,2012-09-30 23:53:00
5:53 PM,88.0,41.0,19,30.07,10.0,Calm,Calm,-,N/A,,Clear,0,2012-10-01 00:53:00
6:53 PM,84.0,43.0,24,30.08,10.0,West,3.5,-,N/A,,Clear,280,2012-10-01 01:53:00
7:53 PM,73.9,46.9,38,30.11,10.0,NE,6.9,-,N/A,,Clear,40,2012-10-01 02:53:00
8:53 PM,70.0,48.0,46,30.13,10.0,NE,5.8,-,N/A,,Clear,40,2012-10-01 03:53:00
9:53 PM,68.0,46.9,47,30.14,10.0,North,3.5,-,N/A,,Clear,10,2012-10-01 04:53:00
10:53 PM,64.9,45.0,48,30.15,10.0,Calm,Calm,-,N/A,,Clear,0,2012-10-01 05:53:00
11:53 PM,63.0,45.0,52,30.15,10.0,SW,3.5,-,N/A,,Clear,220,2012-10-01 06:53:00